www.pogodaiklimat.ru

Погода и климат >> Архив погоды >> Россия >> Красноярский край >> Большая Мурта


ПОГОДА в Большой Мурте

  • Прогноз погоды в Большой Мурте
  • Монитор погоды в Большой Мурте

АРХИВ ПОГОДЫ в Большой Мурте

Время (UTC), дата Ветер
(напр.,м/с)
 
Видим.   Явления Облачность Т
(С)
Тd
(С)
f
(%)
Тe
(С)
Тes
(С)
Комфортность P
(гПа)
Po
(гПа)
Тmin
(С)
Tmax
(С)
R
(мм)
R24
(мм)
S
(см)
21 16.05 З 1 н/о н/о -0.3 -8.1 56 -2 -2 1019.3 996.6
00 17.05 С 1 10 км 9/4 600 м
[Cb cap Ac trans Ci sp]
+2.6 -5.9 53 +2 +3 1020.2 997.7 -1.0
03 17.05 З 3 н/о н/о +9.4 -9.3 26 +8 +8 1019.5 997.6
06 17.05 З 3 20 км 9/6 600 м
[Cb cap Ci]
+10.8 -10.5 21 +10 +14 1018.9 997.1
09 17.05 З 4 н/о н/о +11.9 -11.4 18 +11 +11 1018.9 997.2
12 17.05 СЗ 1 20 км 9/5 600 м
[Cb cap Ci ing]
+10.9 -10.7 21 +11 +12 1019.5 997.7 +12.3 0.0
15 17.05 З 2 н/о н/о +7.5 -7.3 34 +6 +6 1021.2 999.1
18 17.05 штиль 0 н/о н/о +2.9 -4.6 58 +2 +2 1022.3 999.8
21 17.05 штиль 0 н/о н/о +0.4 -4.3 71 -0 -0 1022.7 1000.0
00 18.05 ЮВ 1 10 км 6/0 2000 м
[Ac trans Ci fib]
+5.5 -3.9 51 +5 +7 1022.8 1000.5 -0.7
03 18.05 ЮВ 3 н/о н/о +12.1 -7.7 24 +11 +11 1021.5 999.8
06 18.05 ЮЗ 3
{10}
20 км 9/8 600 м
[Cb cap Ci fib]
+13.0 -10.1 19 +12 +14 1020.3 998.6
09 18.05 Ю 2 н/о н/о +13.7 -9.9 18 +14 +14 1018.1 996.5
12 18.05 ЮЗ 2 20 км 10/0
[Cs]
+13.4 -9.5 19 +13 +15 1017.3 995.7 +14.6
15 18.05 Ю 1 н/о н/о +7.2 -7.3 35 +7 +7 1016.9 994.9
18 18.05 Ю 1 н/о н/о +4.8 -5.1 49 +4 +4 1016.4 994.2
21 18.05 штиль 0 н/о н/о +2.7 -4.6 59 +2 +2 1015.5 993.1
00 19.05 СВ 1 10 км 9/0 2000 м
[Ac trans Cs]
+7.2 -3.8 45 +7 +9 1014.4 992.4 +1.6
03 19.05 ЮВ 2 н/о н/о +14.7 -6.7 22 +15 +15 1012.2 990.8
06 19.05 ЮВ 4 10 км 10/0
[Cs]
+19.8 -9.9 13 +19 +27 1009.4 988.5
09 19.05 ЮВ 4 н/о н/о +21.4 -10.6 11 +20 +20 1007.1 986.3
12 19.05 ЮВ 3 10 км 9/4 600 м
[Cb cap Ac lent Ci fib]
+22.5 -10.0 11 +20 +21 1005.1 984.5 +23.0
15 19.05 ЮВ 2 н/о н/о +17.8 -9.6 15 +18 +18 1004.4 983.4
18 19.05 Ю 3 н/о н/о +16.2 -7.8 18 +16 +16 1004.2 983.1
21 19.05 Ю 2 н/о н/о +16.0 -2.6 28 +16 +16 1004.2 983.1
00 20.05 ЮЗ 1 10 км 10/10 600 м
[Sc]
+12.9 +0.4 42 +13 +13 1005.8 984.5 +12.6
03 20.05 Ю 2 н/о н/о +17.1 +3.8 41 +17 +17 1005.9 984.9 +12.3
06 20.05 З 3 20 км 9/9 600 м
[Sc]
+19.6 +2.2 31 +20 +21 1004.5 983.7
09 20.05 ЮЗ 3 н/о н/о +17.8 +8.4 54 +18 +18 1003.8 982.9
12 20.05 В 1
{12}
20 км 4/4 600 м
[Cb cap]
+17.1 +12.2 73 +18 +19 1003.8 982.9 +22.4 4
15 20.05 Ю 2 н/о н/о +14.4 +11.6 83 +14 +14 1003.5 982.4
18 20.05 Ю 2 н/о н/о +14.0 +3.7 50 +14 +14 1002.9 981.7
21 20.05 З 1 н/о н/о +9.7 +6.6 81 +9 +9 1002.4 980.9
00 21.05 штиль 0 10 км 9/8 600 м
[Cb cap Ac trans]
+10.5 +7.2 80 +10 +10 1000.4 979.0 +9.5 0.0
03 21.05 штиль 0 н/о н/о +12.0 +7.5 74 +12 +12 997.7 976.5
06 21.05 СВ 1 2000 м 10/8 300 м
[Cb cap As op]
+11.8 +11.8 100 +11 +12 995.3 974.2
09 21.05 З 3
{11}
н/о н/о +11.2 +10.6 96 +9 +9 998.6 977.4
12 21.05 ЮЗ 2
{10}
20 км 9/8 600 м
[Sc Ac lent]
+11.2 +6.6 73 +10 +10 1000.9 979.6 +13.0 5
15 21.05 ЮЗ 1 н/о н/о +8.5 +6.5 87 +8 +8 1001.5 979.9
18 21.05 Ю 2 н/о н/о +6.6 +6.6 100 +4 +4 1002.0 980.3
21 21.05 В 1 н/о н/о +3.7 +3.0 95 +2 +2 1001.6 979.5
00 22.05 Ю 2 10 км 9/9 600 м
[Sc]
+7.5 +7.5 100 +5 +5 1001.1 979.5 +3.0 0.6
03 22.05 ЮЗ 5-11
{11}
н/о н/о +9.0 +3.2 67 +6 +6 1002.2 980.7
06 22.05 З 5
{13}
20 км 9/9 300 м
[Cb cap]
+10.6 +3.4 61 +8 +9 1003.7 982.2
09 22.05 ЮЗ 5-11
{12}
н/о н/о +13.1 +1.0 44 +11 +11 1004.2 982.9
12 22.05 З 2
{12}
10 км 9/9 300 м
[Cb calv]
+9.4 +4.0 69 +8 +8 1005.6 984.0 +14.2 0.0
15 22.05 Ю 2 н/о н/о +7.0 +7.0 100 +5 +5 1004.2 982.5
18 22.05 Ю 1 н/о н/о +3.1 +4.5 100 +1 +1 1004.0 981.3
21 22.05 штиль 0 н/о н/о +1.4 +4.5 100 0 0 1004.0 982.9
00 23.05 СВ 1 2000 м 3/0 2000 м
[Ac lent Ci fib]
+6.3 +6.1 99 +5 +7 1005.9 984.0 -0.7 0.0
03 23.05 ЮЗ 4 н/о н/о +12.2 +3.2 54 +10 +10 1005.9 984.5
06 23.05 З 5-10
{11}
20 км 9/8 600 м
[Cb cap Ci fib]
+13.8 -3.5 30 +12 +14 1006.4 985.1
09 23.05 СЗ 4
{11}
н/о н/о +13.7 -3.3 31 +13 +13 1007.4 986.1
12 23.05 З 1
{10}
20 км 9/6 600 м
[Cb cap Ac lent Cs]
+12.4 -3.0 34 +13 +13 1009.0 987.5 +14.4
15 23.05 ЮЗ 2 н/о н/о +8.6 +3.1 68 +7 +7 1011.7 990.0
18 23.05 З 1 н/о н/о +7.1 +3.7 79 +6 +6 1013.7 991.7

 

Местоположение метеостанции Большая Мурта (Красноярский край, Россия): широта 56.90 долгота 93.13 высота над уровнем моря 180 м.

В архиве по умолчанию представлена погода в Большой Мурте за последнюю неделю. Архивные данные за месяц целиком и за предыдущие месяцы, начиная с января 2011 года, Вы можете получить, выбрав интересующий диапазон дат из раскрывающегося списка и нажав кнопку "Ввод!".


*Определитесь, кто Вы:
робот инопланетянин человек

Внимание! Время в таблицах - всемирное. Для получения местного времени необходимо прибавить поправку, которая равна 7 ч.

Смотрите также архив погоды в соседних городах и на ближайших метеорологических станциях:

Погода в Сухобузимском (Красноярский край, Россия) (45 км)
Погода в Погорельском Бору (Красноярский край, Россия) (60 км)
Погода в Железногорске (Красноярский край, Россия) (76 км)
Погода в Казачинском (Красноярский край, Россия) (87 км)
Погода в Емельяново (Красноярский край, Россия) (90 км)
Погода в Тасеево (Красноярский край, Россия) (92 км)
Погода в Минино (Красноярский край, Россия) (96 км)
Погода в Пировском (Красноярский край, Россия) (96 км)
Погода в Красноярске (Красноярский край, Россия) (100 км)
Погода в Каче (Красноярский край, Россия) (104 км)

Пояснения к столбцам:

Ветер - указаны скорость ветра в м/с - средняя за 10 мин, порывы в срок и между сроками (в фигурных скобках) и направление, откуда дует ветер: С - северный, СВ - северо-восточный, В - восточный, ЮВ - юго-восточный, Ю - южный, ЮЗ - юго-западный, З - западный, СЗ - северо-западный.
Видимость - горизонтальная дальность видимости в метрах или километрах. При видимости от 1 до 10 км при отсутствии осадков обычно наблюдается дымка, при ухудшении видимости до 1 км и менее - туман. В сухую погоду видимость может ухудшаться дымом, пылью или мглою.
Явления - указаны атмосферные явления, наблюдавшиеся в срок или в последний час перед сроком; фигурными скобками обозначены явления, наблюдавшиеся между сроками (за 1-3 часа до срока); квадратными скобками обозначены град или гололедные отложения с указанием их диаметра в мм.
Облачность - указаны через наклонную черту общая и нижняя облачность в баллах и высота нижней границы облаков в метрах; квадратными скобками обозначены формы облаков: Ci - перистые, Cs - перисто-слоистые, Cc - перисто-кучевые, Ac - высококучевые, As - высокослоистые, Sc - слоисто-кучевые, Ns - слоисто-дождевые, Cu - кучевые, Cb - кучево-дождевые. Подробнее классификацию облаков см. в Атласе облаков (PDF).
T - Температура воздуха - температура, измеренная на высоте 2 м над землей.
Td - Температура точки росы - температура, при понижении до которой содержащийся в воздухе водяной пар достигнет насыщения.
f - Относительная влажность воздуха - влажноcть воздуха, измеренная на высоте 2 м над землей.
Te - Эффективная температура - температура, которую ощущает одетый по сезону человек в тени. Характеристика душности погоды. При расчете учитывается влияние влажности воздуха и скорости ветра на теплоощущения человека.
Tes - Эффективная температура на солнце - температура, которую ощущает человек, с поправкой на солнечный нагрев. Характеристика знойности погоды. Зависит от высоты солнца над горизонтом, облачности и скорости ветра. Ночью, в пасмурную погоду, а также при ветре 12 м/с и более поправка равна нулю.
P - Атмосферное давление - приведенное к уровню моря атмосферное давление.
Po - Атмосферное давление - измеренное на уровне метеостанции атмосферное давление.
Tmin - Минимальная температура - минимум температуры воздуха на высоте 2 м над землей.
Tmax - Максимальная температура - максимум температуры воздуха на высоте 2 м над землей.
R - Количество осадков - Количество выпавших осадков за период времени, мм. При наведении курсора мыши на число - период времени, за который выпало указанное количество осадков.
R24 - Количество осадков - Количество выпавших осадков за 24 часа, мм.
S - Снежный покров - Высота снежного покрова, см. При наведении курсора мыши на число - состояние снежного покрова и степень покрытия местности в баллах.